Location: Bullenkuhlen
(53.7689°N, 9.7495°E)
Time: 07:58:54
(UTC+00:00)

Iridium 2 - Pass Details

Date: 09 April 2020
Orbit: 502 x 518 km, 85.5° (Epoch: 01 June)

Event Time Altitude Azimuth Distance (km) Brightness Sun altitude
Exits shadow 19:33:31 14° 155° (SSE) 1,531 5.6 -11.8°
Maximum altitude 19:36:32 40° 88° (E) 777 4.2 -12.2°
Drops below altitude 10° 19:40:09 10° 19° (NNE) 1,763 6.6 -12.7°
Sets 19:42:22 0° 12° (NNE) 2,657 7.6 -12.9°
